Regional Weather Roundup
Issued by NWS

Home | Current Version | Previous Version | Text Only | Print | Product List | Glossary Off
Versions: 1 2 3 4 5 6 7 8 9 10 11 12 13 14 15 16 17 18 19 20 21 22 23 24 25 26 27 28 29 30 31 32 33 34 35 36 37 38 39 40 41 42 43 44 45 46 47 48 49 50

000
ASUS43 KFSD 241402
RWRSD

WEATHER ROUNDUP FOR SOUTH DAKOTA
NATIONAL WEATHER SERVICE SIOUX FALLS SD
900 AM CDT MON JUL 24 2017

NOTE: "FAIR" INDICATES FEW OR NO CLOUDS BELOW 12,000 FEET WITH NO
SIGNIFICANT WEATHER AND/OR OBSTRUCTIONS TO VISIBILITY.


SDZ001>005-009-010-012>017-241500-
NORTHWEST AND NORTH CENTRAL SOUTH DAKOTA

CITY           SKY/WX    TMP DP  RH WIND       PRES   REMARKS
BUFFALO          N/A     71  58  63 S8        29.83R
FAITH            N/A     67  60  78 S13       29.88R
MOBRIDGE       CLOUDY    70  61  73 SE14      29.90F
$$

SDZ012>016-024>037-041>051-057-063-072>074-241500-
SOUTHWEST AND SOUTH CENTRAL SOUTH DAKOTA

CITY           SKY/WX    TMP DP  RH WIND       PRES   REMARKS
RAPID CTY ARPT SUNNY     76  54  46 S3        29.91R
PIERRE         CLOUDY    71  58  63 SE12      29.92S
CUSTER         SUNNY     70  49  47 VRB3      30.06S
ELLSWORTH AFB  SUNNY     76  56  49 S9        29.90S
PHILIP         CLOUDY    73  62  68 E14       29.82F
PINE RIDGE     SUNNY     78  60  53 S8        29.92F
SPEARFISH      FAIR      70  57  64 S5        29.94R
WINNER         FAIR      75  58  55 S12       29.98R
$$

SDZ004>011-016>023-039-040-241500-
NORTHEAST SOUTH DAKOTA

CITY           SKY/WX    TMP DP  RH WIND       PRES   REMARKS
ABERDEEN       PTSUNNY   65  61  87 S12       30.00R
WATERTOWN      CLOUDY    65  62  90 SE8       30.03S
BROOKINGS      SUNNY     66  60  81 S9        30.05S
SISSETON         N/A     66  62  87 SE10      30.00F
$$

SDZ017-020-022-023-036>040-048>070-241500-
SOUTHEAST SOUTH DAKOTA

CITY           SKY/WX    TMP DP  RH WIND       PRES   REMARKS
SIOUX FALLS    CLOUDY    70  62  76 S9        30.04S
HURON          CLOUDY    67  60  78 S13G20    30.00S
CHAMBERLAIN    MOSUNNY   74  63  69 SE12      29.97S
MITCHELL       MOSUNNY   69  61  75 SE10      30.01S
YANKTON        SUNNY     67  62  84 SE7       30.03F
$$

ABBREVIATIONS USED IN REMARKS
   TC - TEMPERATURE IN CELSIUS
  WCI - WIND CHILL INDEX
   HX - HEAT INDEX
  VSB - VISIBILITY





USA.gov is the U.S. government's official web portal to all federal, state and local government web resources and services.